| time (UTC) | temp C | wind direction | speed KPH | gust KPH | rain 1hr cm | rain 24hr cm | rain mn cm | humidity % | barometer mb |
| 20260507170046 | 26 | 300 | 12.9 | 22.5 | 0.00 | 0.00 | 0.00 | 65 | 1015.5 |
| 20260507164611 | 27 | 259 | 4.8 | 17.7 | 0.00 | 0.00 | 0.00 | 63 | 1015.2 |
| 20260507163045 | 27 | 309 | 9.7 | 19.3 | 0.00 | 0.00 | 0.00 | 61 | 1015.0 |
| 20260507161508 | 27 | 269 | 9.7 | 19.3 | 0.00 | 0.00 | 0.00 | 62 | 1015.2 |
| 20260507160044 | 28 | 355 | 9.7 | 27.4 | 0.00 | 0.00 | 0.00 | 60 | 1015.5 |
| 20260507154510 | 28 | 312 | 12.9 | 25.7 | 0.00 | 0.00 | 0.00 | 59 | 1015.6 |
| 20260507153047 | 28 | 302 | 8.0 | 19.3 | 0.00 | 0.00 | 0.00 | 59 | 1015.7 |
| 20260507151511 | 27 | 281 | 12.9 | 20.9 | 0.00 | 0.00 | 0.00 | 60 | 1015.7 |
| 20260507150050 | 27 | 288 | 12.9 | 20.9 | 0.00 | 0.00 | 0.00 | 60 | 1015.3 |
| 20260507144512 | 26 | 290 | 8.0 | 16.1 | 0.00 | 0.00 | 0.00 | 60 | 1015.1 |
| 20260507143059 | 27 | 263 | 9.7 | 19.3 | 0.00 | 0.00 | 0.00 | 58 | 1014.6 |
| 20260507141513 | 26 | 292 | 8.0 | 17.7 | 0.00 | 0.00 | 0.00 | 65 | 1014.3 |
| 20260507140046 | 25 | 259 | 6.4 | 12.9 | 0.00 | 0.00 | 0.00 | 68 | 1014.5 |
| 20260507134509 | 24 | 285 | 4.8 | 16.1 | 0.00 | 0.00 | 0.00 | 73 | 1014.5 |
| 20260507133045 | 23 | 273 | 1.6 | 6.4 | 0.00 | 0.00 | 0.00 | 78 | 1014.5 |
| 20260507131502 | 22 | 269 | 3.2 | 6.4 | 0.00 | 0.00 | 0.00 | 85 | 1014.7 |
| 20260507130058 | 21 | 19 | 0.0 | 0.0 | 0.00 | 0.00 | 0.00 | 91 | 1014.8 |
| 20260507124505 | 20 | 188 | 0.0 | 0.0 | 0.00 | 0.00 | 0.00 | 93 | 1014.6 |
| 20260507123050 | 20 | 186 | 0.0 | 3.2 | 0.00 | 0.00 | 0.00 | 93 | 1014.7 |
| 20260507121518 | 19 | 186 | 0.0 | 3.2 | 0.00 | 0.00 | 0.00 | 94 | 1014.8 |
| 20260507120059 | 18 | 190 | 0.0 | 3.2 | 0.00 | 0.00 | 0.00 | 94 | 1014.6 |
| 20260507114526 | 18 | 191 | 0.0 | 0.0 | 0.00 | 0.00 | 0.00 | 94 | 1014.4 |
| 20260507113105 | 18 | 191 | 0.0 | 0.0 | 0.00 | 0.00 | 0.00 | 94 | 1014.1 |
| 20260507111533 | 18 | 191 | 0.0 | 3.2 | 0.00 | 0.00 | 0.00 | 93 | 1014.1 |
| 20260507110107 | 17 | 191 | 0.0 | 1.6 | 0.00 | 0.00 | 0.00 | 93 | 1014.0 |
| 20260507104543 | 17 | 191 | 1.6 | 3.2 | 0.00 | 0.00 | 0.00 | 93 | 1013.9 |
| 20260507103130 | 18 | 190 | 0.0 | 0.0 | 0.00 | 0.00 | 0.00 | 92 | 1013.6 |
| 20260507101529 | 18 | 190 | 0.0 | 1.6 | 0.00 | 0.00 | 0.00 | 92 | 1013.7 |
| 20260507100111 | 18 | 249 | 0.0 | 3.2 | 0.00 | 0.00 | 0.00 | 92 | 1013.7 |
| 20260507094537 | 19 | 250 | 0.0 | 3.2 | 0.00 | 0.00 | 0.00 | 90 | 1013.7 |
| 20260507093108 | 19 | 249 | 0.0 | 3.2 | 0.00 | 0.00 | 0.00 | 90 | 1013.7 |
| 20260507091544 | 19 | 255 | 0.0 | 4.8 | 0.00 | 0.00 | 0.00 | 89 | 1013.4 |
| 20260507090011 | 19 | 261 | 0.0 | 4.8 | 0.00 | 0.00 | 0.00 | 88 | 1013.3 |
| 20260507084603 | 19 | 242 | 1.6 | 6.4 | 0.00 | 0.00 | 0.00 | 89 | 1013.0 |
| 20260507083018 | 19 | 193 | 0.0 | 3.2 | 0.00 | 0.00 | 0.00 | 87 | 1012.6 |
| 20260507081550 | 19 | 243 | 0.0 | 3.2 | 0.00 | 0.00 | 0.00 | 88 | 1012.8 |
| 20260507080024 | 19 | 272 | 0.0 | 6.4 | 0.00 | 0.00 | 0.00 | 89 | 1012.7 |
| 20260507074610 | 19 | 275 | 0.0 | 3.2 | 0.00 | 0.00 | 0.00 | 90 | 1012.8 |
| 20260507073029 | 18 | 150 | 0.0 | 3.2 | 0.00 | 0.00 | 0.00 | 90 | 1013.2 |
| 20260507071613 | 18 | 150 | 0.0 | 3.2 | 0.00 | 0.00 | 0.00 | 88 | 1013.2 |
| 20260507070029 | 19 | 150 | 0.0 | 0.0 | 0.00 | 0.00 | 0.00 | 87 | 1013.5 |
| 20260507064603 | 19 | 150 | 0.0 | 3.2 | 0.00 | 0.00 | 0.00 | 87 | 1013.5 |
| 20260507063020 | 19 | 150 | 0.0 | 3.2 | 0.00 | 0.00 | 0.00 | 86 | 1013.7 |
| 20260507061602 | 19 | 150 | 0.0 | 3.2 | 0.00 | 0.00 | 0.00 | 86 | 1013.8 |
| 20260507060022 | 19 | 150 | 1.6 | 3.2 | 0.00 | 0.00 | 0.00 | 85 | 1014.0 |
| 20260507054615 | 20 | 150 | 0.0 | 0.0 | 0.00 | 0.00 | 0.00 | 84 | 1014.1 |
| 20260507053025 | 20 | 150 | 0.0 | 0.0 | 0.00 | 0.00 | 0.00 | 83 | 1014.2 |
| 20260507051602 | 20 | 150 | 0.0 | 3.2 | 0.00 | 0.00 | 0.00 | 83 | 1014.4 |
| 20260507050042 | 20 | 150 | 0.0 | 3.2 | 0.00 | 0.00 | 0.00 | 81 | 1014.6 |
| 20260507044610 | 21 | 150 | 0.0 | 3.2 | 0.00 | 0.00 | 0.00 | 79 | 1014.6 |
| 20260507043040 | 21 | 150 | 0.0 | 3.2 | 0.00 | 0.00 | 0.00 | 80 | 1014.5 |
| 20260507041511 | 21 | 150 | 0.0 | 4.8 | 0.00 | 0.00 | 0.00 | 79 | 1014.5 |
| 20260507040042 | 21 | 151 | 0.0 | 4.8 | 0.00 | 0.00 | 0.00 | 79 | 1014.8 |
| 20260507034508 | 21 | 153 | 1.6 | 4.8 | 0.00 | 0.00 | 0.00 | 78 | 1014.8 |
| 20260507033053 | 21 | 153 | 0.0 | 1.6 | 0.00 | 0.00 | 0.00 | 77 | 1014.7 |
| 20260507031516 | 21 | 153 | 0.0 | 3.2 | 0.00 | 0.00 | 0.00 | 78 | 1014.5 |
| 20260507030051 | 22 | 170 | 3.2 | 6.4 | 0.00 | 0.00 | 0.00 | 77 | 1014.6 |
| 20260507024521 | 22 | 255 | 0.0 | 3.2 | 0.00 | 0.00 | 0.00 | 74 | 1014.4 |
| 20260507023056 | 23 | 262 | 0.0 | 3.2 | 0.00 | 0.00 | 0.00 | 72 | 1014.2 |
| 20260507021534 | 23 | 263 | 1.6 | 4.8 | 0.00 | 0.00 | 0.00 | 70 | 1014.2 |
| 20260507020004 | 23 | 271 | 1.6 | 3.2 | 0.00 | 0.00 | 0.00 | 69 | 1014.5 |
| 20260507014552 | 24 | 276 | 1.6 | 3.2 | 0.00 | 0.00 | 0.00 | 67 | 1014.3 |
| 20260507013009 | 25 | 267 | 1.6 | 6.4 | 0.00 | 0.00 | 0.00 | 66 | 1014.1 |
| 20260507011543 | 25 | 279 | 1.6 | 6.4 | 0.00 | 0.00 | 0.00 | 64 | 1014.3 |
| 20260507010018 | 26 | 288 | 3.2 | 8.0 | 0.00 | 0.00 | 0.00 | 62 | 1014.5 |
| 20260507004548 | 26 | 285 | 3.2 | 9.7 | 0.00 | 0.00 | 0.00 | 60 | 1014.4 |
| 20260507003019 | 27 | 287 | 6.4 | 12.9 | 0.00 | 0.00 | 0.00 | 58 | 1014.4 |
| 20260507001607 | 27 | 285 | 9.7 | 16.1 | 0.00 | 0.00 | 0.00 | 57 | 1014.1 |
| 20260507000032 | 28 | 317 | 6.4 | 9.7 | 0.00 | 0.00 | 0.00 | 56 | 1014.0 |
| 20260506234627 | 28 | 315 | 4.8 | 14.5 | 0.00 | 0.00 | 0.00 | 55 | 1013.5 |
| 20260506233024 | 29 | 320 | 8.0 | 17.7 | 0.00 | 0.00 | 0.00 | 53 | 1013.6 |
| 20260506231559 | 30 | 283 | 11.3 | 22.5 | 0.00 | 0.00 | 0.00 | 51 | 1013.5 |
| 20260506230028 | 31 | 263 | 8.0 | 19.3 | 0.00 | 0.00 | 0.00 | 48 | 1013.2 |
| 20260506224555 | 31 | 252 | 8.0 | 17.7 | 0.00 | 0.00 | 0.00 | 46 | 1013.3 |
| 20260506223011 | 32 | 284 | 3.2 | 14.5 | 0.00 | 0.00 | 0.00 | 46 | 1013.3 |
| 20260506221559 | 32 | 288 | 8.0 | 22.5 | 0.00 | 0.00 | 0.00 | 45 | 1013.4 |
| 20260506220017 | 32 | 279 | 3.2 | 12.9 | 0.00 | 0.00 | 0.00 | 45 | 1013.4 |
| 20260506214600 | 32 | 267 | 11.3 | 19.3 | 0.00 | 0.00 | 0.00 | 44 | 1013.2 |
| 20260506213019 | 32 | 275 | 8.0 | 19.3 | 0.00 | 0.00 | 0.00 | 45 | 1013.3 |
| 20260506211555 | 33 | 320 | 8.0 | 16.1 | 0.00 | 0.00 | 0.00 | 42 | 1013.3 |
| 20260506210030 | 33 | 286 | 11.3 | 20.9 | 0.00 | 0.00 | 0.00 | 43 | 1013.4 |
| 20260506204548 | 33 | 196 | 4.8 | 24.1 | 0.00 | 0.00 | 0.00 | 43 | 1013.6 |